Wausau, WI

3:54 PM CDT on October 17, 2017 (GMT -0500)
Wausau Downtown

Weather History for KAUW - October, 2014

Change the Weather History Date:

Sunday, October 19, 2014

  Actual Average Record
Temperature  
Mean Temperature 42 °F 45 °F  
Max Temperature 55 °F 54 °F 78 °F (1953)
Min Temperature 29 °F 36 °F 16 °F (1972)
Degree Days  
Heating Degree Days 23 20  
Month to date heating degree days 347 320  
Since 1 July heating degree days 625 613  
Cooling Degree Days 0 0  
Month to date cooling degree days 0 0  
Year to date cooling degree days 338 405  
Moisture  
Dew Point 37 °F    
Average Humidity 80    
Maximum Humidity 96    
Minimum Humidity 63    
Precipitation  
Precipitation T in 0.09 in 1.07 in (1982)
Month to date precipitation 3.88 1.98  
Year to date precipitation 36.52 28.09  
Snow  
Snow 0.00 in 0.00 in 4.00 in (1986)
Month to date snowfall T 0.6  
Since 1 July snowfall T 0.6  
Snow Depth 0.00 in    
Sea Level Pressure  
Sea Level Pressure 29.97 in    
Wind  
Wind Speed 6 mph (South)    
Max Wind Speed 18 mph    
Max Gust Speed 25 mph    
Visibility 10 miles    
Events      
T = Trace of Precipitation, MM = Missing Value Source: NWS Daily Summary

Daily Weather History Graph

Daily Weather History Graph

Search for Another Location

Airport or City:

Trip Planner

Search our weather history database for the weather conditions in past years. The results will help you decide how hot, cold, wet, or windy it might be!

Date:

Astronomy

Oct. 19, 2014 Rise Set
Actual Time 7:19 AM CDT 6:06 PM CDT
Civil Twilight 6:49 AM CDT 6:36 PM CDT
Nautical Twilight 6:15 AM CDT 7:10 PM CDT
Astronomical Twilight 5:41 AM CDT 7:44 PM CDT
Moon 3:02 AM CDT (10/19) 4:07 PM CDT (10/19)
Length of Visible Light 11h 46m
Length of Day
10h 47m
Waning Crescent, 16% of the Moon is Illuminated
Oct 19
Waning Crescent
Oct 23
New
Oct 30
First Quarter
Nov 6
Full
Nov 14
Last Quarter

Hourly Weather History & Observations

Time (CDT) Temp. Windchill Dew Point Humidity Pressure Visibility Wind Dir Wind Speed Gust Speed Precip Events Conditions
12:54 AM 30.9 °F 25.2 °F 28.9 °F 92% 30.17 in 10.0 mi East 5.8 mph - N/A   Clear
1:54 AM 30.9 °F 26.2 °F 28.9 °F 92% 30.16 in 10.0 mi ESE 4.6 mph - N/A   Clear
2:54 AM 30.0 °F 25.2 °F 28.0 °F 92% 30.14 in 10.0 mi ESE 4.6 mph - N/A   Clear
3:54 AM 30.9 °F - 28.9 °F 92% 30.13 in 10.0 mi Calm Calm - N/A   Clear
4:54 AM 30.0 °F 25.2 °F 28.9 °F 96% 30.14 in 10.0 mi ESE 4.6 mph - N/A   Clear
5:54 AM 28.9 °F 23.9 °F 27.0 °F 92% 30.13 in 10.0 mi ESE 4.6 mph - N/A   Clear
6:54 AM 30.0 °F 25.2 °F 28.0 °F 92% 30.11 in 10.0 mi East 4.6 mph - N/A   Clear
7:54 AM 34.0 °F 28.8 °F 32.0 °F 92% 30.10 in 10.0 mi South 5.8 mph - N/A   Clear
8:54 AM 36.0 °F 29.6 °F 34.0 °F 93% 30.08 in 10.0 mi South 8.1 mph - N/A   Clear
9:54 AM 41.0 °F 35.2 °F 37.0 °F 86% 30.05 in 10.0 mi South 9.2 mph - N/A   Scattered Clouds
10:54 AM 45.0 °F 40.1 °F 37.9 °F 76% 30.03 in 10.0 mi South 9.2 mph - N/A   Overcast
11:54 AM 46.9 °F - 39.0 °F 74% 29.99 in 10.0 mi SSW 8.1 mph - N/A   Mostly Cloudy
12:54 PM 51.1 °F - 41.0 °F 68% 29.95 in 10.0 mi SSW 15.0 mph 19.6 mph N/A   Clear
1:54 PM 52.0 °F - 39.9 °F 63% 29.91 in 10.0 mi SSW 13.8 mph 24.2 mph N/A   Overcast
2:54 PM 53.1 °F - 42.1 °F 66% 29.87 in 10.0 mi South 11.5 mph - 0.00 in   Mostly Cloudy
3:54 PM 54.0 °F - 43.0 °F 66% 29.85 in 10.0 mi South 11.5 mph - 0.00 in   Mostly Cloudy
4:54 PM 54.0 °F - 43.0 °F 66% 29.84 in 10.0 mi SSW 9.2 mph - N/A   Overcast
5:54 PM 53.1 °F - 43.0 °F 69% 29.83 in 10.0 mi SSW 5.8 mph - N/A   Clear
6:54 PM 50.0 °F - 43.0 °F 77% 29.83 in 10.0 mi South 3.5 mph - N/A   Clear
7:54 PM 46.9 °F - 43.0 °F 86% 29.83 in 10.0 mi South 3.5 mph - N/A   Scattered Clouds
8:54 PM 45.0 °F - 42.1 °F 90% 29.81 in 10.0 mi Calm Calm - N/A   Clear
9:54 PM 46.0 °F - 42.1 °F 86% 29.80 in 10.0 mi Calm Calm - N/A   Clear
10:54 PM 48.0 °F - 43.0 °F 83% 29.78 in 10.0 mi Variable 3.5 mph - N/A   Clear
11:54 PM 41.0 °F - 39.9 °F 96% 29.78 in 10.0 mi Calm Calm - N/A   Clear